Find Starlink 11526

NORAD ID: 63007 Int'l Des: 2025-032 Owner: SPXS Country: US Constellation: starlink operational
別名: STARLINK-11526 [DTC] celestrak
LEOCIRCULAR

現在のビュー

3D地球を読み込み中...

About Starlink 11526

Starlink 11526 (NORAD 63007) is a starlink constellation satellite (v2 mini d2c) launched Feb 15, 2025 by SPXS of US. It operates in LEO, CIRCULAR orbit with a mass of 960.00 kg.

次回通過

Passes for default location (London). Set your location on the main map for personalized predictions.

高度履歴

Loading altitude history...

軌道要素

1 63007U 25032C 26235.49990217 .00138674 00000-0 10645-2 0 9994
2 63007 43.0005 269.4264 0001565 261.8502 98.2188 15.70879198 88450
Epoch: Aug 23, 2026 • Age: 20 hours

現在のステータス

高度 360.3 km
遠地点 / 近地点 N/A
速度 7.69 km/s
衛星直下点 -22.01°S, 150.95°E
打ち上げ日 Feb 15, 2025
運用期間 1.5 years
タイプ internet

技術仕様

分類 Payload
質量 960.00 kg
乾燥質量 910.00 kg
総質量 960.00 kg
長さ 0.30 m
直径 4.10 m
スパン 29.00 m
形状 Box + pan
製造者 SPXS
バスタイプ Starlink V2MD
フェーズステータス In Orbit
所有者/国 SPXS/US

Most Searched